Location: Casteau
(50.5142°N, 4.0161°E)
Time: 05:11:50
(UTC+00:00)

Vanguard 1 Rocket - Pass Details

Date: 02 August 2021
Orbit: 650 x 4226 km, 34.3° (Epoch: 21 September)

Event Time Altitude Azimuth Distance (km) Brightness Sun altitude
Rises 07:58:37 0° 211° (SSW) 8,375 12.2 33.8°
Reaches altitude 10° 08:06:20 10° 201° (SSW) 7,060 12.0 35.0°
Maximum altitude 08:22:14 26° 156° (SSE) 4,684 11.9 37.4°
Drops below altitude 10° 08:32:58 10° 107° (ESE) 4,721 12.3 39.0°
Sets 08:36:43 0° 95° (E) 5,249 12.1 39.5°
